Theta_e
337 338 339 342 339 341 341 340 340 341 339 337 337 337 337 337 337 337 336 336 337 337 337 336 336 335 335 337 336 336 335 335 334 334 334 334 334 334 333 333 332 333 332 331 334 334 334 334 333 332 333 332 331 330 329 330 329 328 327 328 328 328 329 328 328 328 328 329 330 330 331 330 329 328 327 325 326 325 323 322 323 321 322 322 325
336 339 339 342 339 341 341 338 338 339 338 337 336 336 336 336 336 336 335 336 336 337 336 336 336 336 336 337 336 335 335 335 334 334 334 334 334 334 333 332 332 332 331 331 333 334 334 334 334 333 332 332 329 327 329 329 328 326 326 326 326 327 327 326 326 326 326 327 327 326 326 328 328 329 328 327 325 325 323 321 323 321 321 325 325
339 340 339 341 339 339 339 339 339 338 338 337 337 337 337 337 337 336 336 336 336 335 335 336 336 335 336 336 334 334 334 334 334 333 334 334 334 332 332 332 331 331 331 331 333 333 331 330 331 332 330 329 329 328 327 327 325 325 324 325 325 325 325 326 325 325 325 325 324 325 326 326 325 327 328 327 326 325 322 322 322 322 321 326 325
337 338 338 341 339 340 338 339 339 339 338 337 337 337 336 337 337 336 336 335 335 335 335 336 336 336 336 334 334 334 335 334 334 333 333 333 332 332 332 331 331 331 331 331 332 333 332 331 331 331 330 329 328 327 326 325 324 324 323 323 324 324 325 325 325 325 325 324 322 323 322 322 322 324 325 326 325 324 323 322 322 323 325 326 325
338 337 337 340 338 339 339 339 338 339 338 336 335 336 336 337 337 336 336 335 334 335 336 335 336 335 335 334 334 335 335 334 333 333 333 332 333 332 331 332 332 331 331 331 332 331 331 330 330 329 328 328 327 326 325 324 324 323 323 323 323 325 325 325 325 324 324 323 322 322 320 321 322 324 324 325 325 323 323 323 323 322 321 324 325
338 337 338 337 336 337 340 339 339 339 338 336 334 333 335 336 337 336 335 335 335 335 335 335 335 336 335 334 334 334 334 333 333 332 332 333 332 330 332 332 332 331 332 333 332 331 330 329 329 328 327 326 326 325 324 324 323 323 323 324 324 325 324 324 323 323 322 321 322 321 320 320 320 321 326 327 326 324 324 324 323 323 323 324 324
338 337 337 337 337 337 340 339 339 339 339 337 335 334 336 337 337 336 335 336 336 335 335 335 335 335 334 334 334 334 333 333 333 332 332 332 330 331 332 331 330 331 331 331 331 330 329 329 327 327 326 326 325 324 323 323 323 322 324 324 324 324 324 323 322 321 319 321 319 320 320 320 320 320 325 326 326 326 325 324 323 323 323 323 322
337 339 338 337 337 337 339 340 339 339 339 339 336 336 337 337 337 336 335 336 336 335 335 335 334 334 334 334 334 333 333 333 333 332 331 330 330 330 330 330 330 330 330 330 329 328 327 326 326 326 325 325 324 324 323 323 322 322 322 323 324 323 322 321 320 319 318 318 319 319 319 320 320 320 324 323 324 325 323 323 324 324 323 323 321
336 338 337 336 337 338 338 339 339 339 339 339 338 337 337 336 335 335 335 334 334 335 334 334 334 334 334 334 334 333 333 333 332 331 330 330 330 330 330 330 329 329 330 330 328 328 327 326 326 325 325 324 323 323 322 322 322 322 322 322 322 322 321 320 319 318 318 318 318 318 319 319 320 320 324 324 325 324 324 322 322 322 322 321 321
335 336 337 336 337 338 338 339 339 338 339 339 338 338 337 336 335 334 334 334 334 334 334 333 334 333 334 333 334 334 333 332 331 330 330 330 330 329 329 329 328 328 328 329 329 328 326 326 325 324 324 323 323 322 321 321 321 320 321 322 322 321 320 318 318 319 317 317 318 318 319 321 320 320 322 324 324 324 322 320 321 321 320 321 320
335 334 335 336 338 337 338 339 339 338 339 339 338 338 337 336 335 335 334 334 334 334 333 333 333 333 333 333 333 333 332 330 329 329 329 329 329 329 329 328 327 327 327 327 327 326 325 325 324 324 324 323 322 321 321 320 320 320 321 321 321 320 319 317 318 317 317 317 317 317 319 321 319 320 323 323 323 322 321 321 320 321 322 322 321
334 335 335 336 338 337 337 339 339 338 339 339 339 338 337 336 335 334 334 334 334 334 333 333 332 333 333 333 333 332 331 329 329 328 328 328 328 328 328 328 327 326 327 327 327 325 325 325 325 324 323 323 322 321 320 320 320 320 321 320 320 319 318 317 316 316 316 316 316 317 318 317 319 320 323 324 324 324 322 322 321 322 322 322 321
334 335 336 336 337 337 337 338 338 338 338 337 338 337 336 335 334 334 334 333 334 334 333 332 332 333 333 333 332 331 329 329 328 328 328 327 328 328 327 328 327 325 325 327 327 327 325 323 324 324 322 322 320 320 319 319 319 319 320 319 319 318 317 316 315 315 316 316 316 317 317 318 319 322 322 323 324 323 323 323 321 322 322 321 320
333 335 335 337 336 338 336 336 338 338 338 337 337 337 336 335 335 334 334 333 333 334 333 332 332 332 333 332 331 330 329 328 327 327 327 327 327 327 327 327 326 326 325 326 326 324 323 323 323 323 322 320 320 319 319 318 319 319 319 318 317 315 315 315 316 315 315 315 316 316 316 317 318 321 322 324 324 323 322 322 321 320 320 321 320
333 334 336 337 336 337 336 335 336 337 337 337 336 335 334 335 335 334 334 333 333 333 332 332 332 332 331 331 330 328 328 327 327 327 326 326 326 326 326 326 326 325 324 325 325 324 323 323 323 322 321 320 319 318 318 318 318 319 318 317 316 315 315 313 314 315 314 314 315 316 316 316 319 320 321 322 323 323 321 321 321 321 320 320 319
335 334 335 336 337 337 336 336 334 335 335 335 336 336 334 334 335 334 334 333 332 332 331 332 332 332 331 330 329 328 327 327 326 325 326 325 325 325 325 325 325 325 324 324 324 323 323 322 323 321 320 319 318 318 317 318 319 318 317 316 315 314 314 315 315 315 314 314 315 315 315 316 318 320 320 322 322 322 321 320 320 320 320 320 319
334 335 335 336 336 336 335 336 336 333 334 333 334 334 335 335 334 334 333 332 332 332 332 332 331 331 330 329 328 327 327 326 326 325 325 325 325 324 324 324 324 323 323 323 323 323 323 322 321 320 319 319 318 317 316 317 317 317 316 315 314 313 313 314 314 315 313 315 314 315 315 316 317 318 319 320 321 321 320 319 320 320 320 320 319
334 334 335 337 336 335 335 337 336 335 335 333 332 331 333 334 334 334 333 332 332 332 332 331 331 331 330 329 328 327 327 326 326 327 326 325 324 324 324 324 324 323 323 322 323 323 322 320 320 319 318 318 316 316 316 317 316 315 314 313 312 312 312 313 313 314 313 314 314 315 315 317 318 317 319 319 320 321 320 319 318 319 319 318 318
332 333 334 335 336 336 335 335 335 333 334 333 333 333 331 332 332 333 333 332 331 331 331 330 330 330 330 329 328 328 327 327 327 325 325 325 325 324 324 323 323 322 322 322 322 322 320 320 319 318 318 316 316 315 315 316 315 314 312 311 311 310 311 313 313 313 313 313 314 314 315 316 317 317 317 318 319 319 319 319 317 319 319 317 317
331 332 332 334 336 335 335 335 335 334 333 332 331 331 330 330 330 330 330 330 330 329 328 328 328 328 328 328 328 325 326 325 326 324 324 324 324 321 323 322 322 322 322 321 321 321 319 319 318 317 316 315 314 314 315 314 313 312 310 309 309 310 311 312 312 313 313 312 313 314 316 316 316 317 318 318 317 318 318 318 317 317 317 317 317
330 331 331 332 334 334 335 334 334 334 334 331 330 330 332 329 329 328 328 327 328 327 326 326 325 325 326 325 325 323 323 322 321 321 323 322 322 322 323 322 321 321 321 321 320 320 319 318 317 316 314 314 313 313 313 312 311 310 309 308 308 310 311 311 312 312 312 313 313 314 315 315 316 316 317 317 317 318 318 317 317 317 317 317 316
328 328 330 331 332 332 333 333 334 333 331 330 331 332 331 329 330 331 331 329 327 327 328 329 325 326 322 324 325 323 322 321 321 320 321 321 321 320 321 322 322 320 320 320 320 320 318 316 315 314 314 312 311 310 309 309 308 308 306 306 308 309 310 310 310 310 311 312 312 312 313 315 315 315 315 316 316 317 317 317 316 315 317 317 315
327 327 329 331 331 331 332 332 332 332 330 329 330 330 330 330 330 330 331 328 328 329 328 326 326 325 325 323 322 323 321 321 321 320 320 320 321 319 319 320 321 321 320 319 320 318 317 314 310 309 307 305 305 306 306 306 306 305 305 307 307 307 308 308 308 309 310 311 311 310 312 313 314 314 315 315 315 315 316 316 315 314 316 316 314
325 328 328 330 330 330 330 330 330 331 331 328 328 330 329 329 329 330 329 329 328 327 326 325 325 324 323 321 321 322 321 320 316 315 316 318 317 315 315 315 315 316 318 318 317 314 311 307 304 302 301 301 302 303 303 304 304 305 306 305 305 305 306 306 306 307 308 309 309 309 311 312 314 314 315 314 314 315 314 315 315 314 315 315 314
328 330 329 328 329 330 330 329 329 328 327 326 326 326 327 325 326 326 326 325 324 324 322 321 323 323 321 320 321 320 319 319 318 317 317 317 317 316 316 315 315 314 313 313 310 308 305 300 298 298 299 300 300 301 302 302 303 303 303 303 303 304 304 304 304 305 307 308 308 308 309 311 312 313 314 314 314 313 314 314 314 314 314 314 314
327 326 327 328 328 330 329 329 328 328 327 325 325 324 324 323 324 324 323 323 322 320 319 320 320 320 320 319 318 318 317 317 318 317 316 316 315 313 313 313 312 311 311 309 307 304 301 299 299 298 297 298 298 299 300 300 301 300 300 301 301 301 302 302 303 303 305 307 307 307 308 309 310 312 312 313 313 313 313 313 313 313 312 313 313
327 327 328 329 330 331 331 330 328 327 326 326 324 322 321 321 321 322 321 320 321 320 319 319 319 318 318 318 317 316 316 316 316 315 314 314 312 311 311 311 311 309 308 307 305 302 299 298 298 298 297 296 296 297 297 298 298 298 298 298 298 298 299 300 300 301 303 305 305 305 307 308 309 310 310 312 312 312 312 312 313 313 313 312 312
327 327 327 329 328 329 331 329 328 327 325 325 323 322 321 320 320 319 320 318 319 319 318 317 318 317 318 317 316 316 315 314 315 314 313 313 310 309 309 308 307 306 306 306 303 300 299 298 298 298 297 296 295 295 294 295 295 296 296 296 296 295 296 296 297 299 300 302 305 303 304 306 308 309 309 311 312 312 312 311 312 312 312 312 312
323 325 327 328 327 327 327 327 328 326 325 324 322 322 320 320 317 317 317 317 317 316 316 316 316 316 317 317 317 315 314 314 313 313 313 311 309 309 308 307 306 305 305 303 302 300 298 298 297 297 297 295 295 294 294 294 294 295 294 294 294 294 294 294 295 296 297 299 302 301 301 303 306 308 308 309 311 311 311 311 311 311 312 312 312
316 323 326 327 328 328 327 326 326 325 323 322 322 320 319 319 317 316 317 316 315 315 315 315 316 316 316 317 317 316 315 313 311 311 311 309 308 309 308 307 305 304 304 302 301 299 298 297 297 297 296 295 295 294 293 293 293 294 294 294 293 293 294 293 294 294 295 296 298 299 298 300 302 305 307 308 309 310 310 310 310 311 311 312 312
314 317 324 327 328 327 326 327 327 324 323 321 321 319 320 318 316 316 315 315 313 313 314 315 315 316 316 317 316 315 314 312 311 310 309 308 307 307 307 305 303 302 302 300 300 299 297 296 296 295 296 296 295 295 294 293 293 294 294 294 294 294 293 293 293 294 294 295 295 296 297 296 298 301 304 306 307 308 309 309 309 310 310 310 311
314 320 321 326 328 326 326 326 326 324 323 322 319 319 319 316 315 314 313 313 314 313 313 313 314 315 316 316 315 313 312 312 311 309 308 307 306 306 305 304 302 301 300 299 298 298 298 298 298 298 298 296 294 294 294 293 293 293 294 293 293 293 293 293 293 293 294 294 295 295 296 295 294 296 299 302 304 306 307 308 308 309 310 310 311
310 313 318 323 325 326 324 325 325 323 322 320 318 318 317 315 313 313 312 311 311 311 310 311 312 313 314 315 313 312 311 310 309 308 307 306 305 304 303 303 302 301 301 300 299 299 297 296 296 297 296 295 295 294 295 294 293 293 294 293 293 293 293 293 293 293 293 294 294 294 295 295 295 293 295 298 301 303 305 306 307 308 309 309 310
308 311 314 317 323 327 325 324 323 320 321 320 319 318 316 315 314 312 310 311 310 310 310 310 309 309 309 310 310 310 309 309 309 308 307 305 304 304 302 301 301 301 300 299 298 298 297 296 295 295 295 295 294 294 294 294 294 294 293 293 293 293 293 293 293 293 293 293 294 294 294 295 295 295 295 294 296 299 301 303 304 306 307 308 308
307 308 312 315 318 324 325 322 320 320 319 319 319 317 316 315 311 309 309 310 311 310 309 310 308 308 308 309 309 308 307 307 307 306 305 305 304 303 302 301 301 301 299 299 299 298 298 296 296 295 296 295 294 294 295 295 294 294 293 293 293 293 293 293 293 293 293 293 293 294 294 294 295 294 294 294 294 295 297 299 301 302 304 306 307
307 307 308 313 315 323 323 322 320 318 318 318 318 317 316 313 311 309 308 308 309 307 307 308 305 304 305 305 306 305 305 306 305 306 305 305 304 302 301 300 301 300 300 300 299 298 298 298 298 297 293 292 293 293 294 294 295 294 295 294 294 294 293 293 293 292 293 293 293 293 293 294 294 293 292 293 293 293 294 295 297 299 300 302 304
308 308 307 309 314 319 322 321 318 318 316 316 317 315 313 310 309 309 307 307 306 306 307 307 306 304 304 303 303 303 304 304 305 306 305 303 302 301 300 301 301 300 299 299 298 299 298 297 296 296 296 292 292 292 293 294 294 293 293 293 294 294 295 293 292 292 293 293 292 292 293 293 292 291 292 292 293 293 292 292 294 294 296 298 301
307 307 308 308 311 317 321 320 318 317 315 315 314 312 312 309 308 308 307 306 306 306 306 306 305 304 304 303 303 302 301 301 303 304 303 302 302 301 300 301 301 300 299 299 299 299 299 297 296 296 295 294 292 291 291 292 293 292 292 293 294 295 294 294 294 293 293 292 292 292 292 292 293 292 292 292 292 292 293 292 291 291 293 295 297
307 307 307 307 309 315 320 318 317 315 313 312 309 308 307 306 306 306 305 304 303 303 304 305 304 304 303 303 303 301 300 300 300 300 299 299 299 299 299 300 300 299 299 298 299 299 299 298 297 295 296 296 294 293 292 292 291 292 293 293 294 294 295 295 295 294 293 293 292 292 292 292 292 292 291 291 291 292 292 293 293 293 292 291 293
306 306 306 307 308 312 318 316 314 312 309 307 306 304 304 303 301 302 302 301 301 301 302 302 303 303 302 301 301 300 299 299 298 299 298 298 298 298 299 299 299 298 297 297 297 298 298 298 297 296 296 296 296 295 295 293 293 293 292 293 294 294 294 295 295 294 294 293 293 292 292 292 292 291 291 291 291 291 291 292 291 291 292 291 291
306 306 306 306 308 310 314 313 311 309 306 304 303 302 301 301 301 301 301 301 300 301 300 301 301 301 300 300 300 299 299 298 298 298 297 298 297 298 298 297 298 297 297 297 298 298 299 298 298 298 296 295 295 295 295 295 293 292 292 293 294 295 295 295 294 295 294 294 293 292 292 292 292 292 290 291 291 291 291 291 291 291 291 292 292
305 305 305 306 308 310 313 313 311 309 307 306 304 304 304 303 302 302 300 300 299 299 298 300 300 300 301 301 300 299 298 298 298 298 297 297 296 296 296 296 296 297 297 298 298 299 298 298 298 296 297 295 294 294 294 294 292 291 291 293 293 295 295 295 294 294 295 294 293 293 292 291 291 291 291 290 290 290 291 291 291 291 291 291 291
306 305 306 307 309 310 312 313 311 309 309 307 306 305 305 305 304 302 301 300 302 301 300 300 299 299 300 301 300 299 299 298 298 297 296 297 296 296 296 296 296 297 297 297 297 298 298 297 296 295 293 295 295 295 294 294 292 293 295 293 292 292 294 294 295 294 294 294 294 293 292 291 291 291 291 291 290 291 291 291 291 291 291 291 291
306 306 306 307 309 310 311 312 311 310 310 310 307 306 306 305 303 301 301 300 298 299 300 300 300 300 299 301 299 299 299 299 298 297 297 297 297 297 297 296 297 298 297 296 296 296 296 297 296 295 294 292 293 291 293 293 293 293 290 291 293 293 293 294 294 295 295 294 294 293 293 291 291 291 291 290 290 290 290 291 290 291 291 291 291
305 307 306 308 310 310 311 312 311 310 310 309 308 306 303 301 300 299 299 298 298 297 297 297 299 298 298 299 299 299 299 298 299 298 297 297 298 297 296 296 297 297 297 296 296 296 296 296 296 295 294 294 292 291 291 292 292 293 292 291 291 292 293 293 292 294 293 293 293 294 294 292 291 291 291 291 291 290 290 290 291 291 291 291 291
305 307 308 309 310 310 310 311 311 310 309 307 304 304 302 299 297 296 295 295 293 294 295 294 295 296 296 298 299 299 299 298 299 299 298 299 297 298 298 297 297 297 297 297 297 297 297 295 297 295 294 295 294 292 290 291 292 293 293 292 292 291 291 292 291 290 292 295 295 294 294 293 293 291 291 291 291 290 290 290 290 291 291 291 290
305 308 309 310 310 310 311 310 310 309 308 304 303 302 300 300 300 299 298 297 296 297 299 297 296 297 297 296 297 299 298 298 298 298 298 298 298 298 298 299 298 298 298 298 297 297 297 295 295 295 294 295 295 292 291 290 290 291 293 293 293 293 292 290 290 291 290 293 293 294 293 294 294 292 292 291 291 290 291 290 291 291 291 291 291
305 308 309 309 309 310 309 309 308 307 305 303 302 302 301 301 301 300 299 298 298 298 298 297 298 297 296 296 296 297 298 298 298 298 298 298 298 298 298 298 299 299 298 298 297 297 296 295 295 295 295 294 294 293 293 293 291 292 292 291 291 291 291 292 292 291 290 289 291 293 294 295 294 293 292 292 291 291 291 291 291 291 291 291 290
305 307 309 310 310 309 308 307 306 306 305 303 303 304 304 304 304 302 299 300 299 298 299 298 296 297 295 296 296 296 297 297 298 298 298 298 298 298 298 297 297 297 297 298 297 295 294 294 293 292 293 293 294 295 294 294 293 291 288 289 290 290 291 291 291 290 289 288 289 291 292 294 293 293 293 293 293 293 292 292 292 291 291 291 291
305 308 310 309 309 307 306 305 305 304 304 304 304 305 306 306 305 304 303 300 297 297 297 296 296 296 295 295 295 295 296 296 297 297 297 297 297 297 297 297 297 297 296 297 295 294 295 294 293 292 293 294 294 293 293 293 292 291 290 289 288 288 288 287 287 288 289 289 288 289 291 291 290 292 292 292 292 292 292 292 292 291 291 291 291
305 309 309 309 307 306 305 304 304 304 304 303 304 303 304 305 305 305 303 299 297 296 295 295 295 295 294 294 294 294 295 295 296 296 297 297 297 296 296 296 297 296 296 296 295 295 294 294 293 293 293 293 292 291 291 291 290 290 290 290 289 288 289 289 289 288 288 288 288 288 291 290 289 290 291 290 290 290 291 291 291 291 291 291 291
Wind_Speed
12 14 14 15 19 19 18 18 18 17 16 16 15 14 14 15 14 14 14 15 17 17 17 17 16 16 15 15 15 16 16 15 15 14 13 13 13 13 12 13 13 13 12 13 16 15 15 14 15 15 17 16 15 16 17 16 16 15 15 16 16 17 17 17 18 18 18 17 19 19 19 19 18 17 18 18 18 16 13 13 12 12 12 14 17
18 15 14 14 17 20 19 18 18 17 16 15 15 14 14 14 14 15 15 15 15 17 16 17 17 16 17 17 16 16 15 16 15 15 14 14 14 13 13 13 14 14 13 15 15 15 15 15 15 15 16 16 16 15 17 16 16 16 16 17 16 16 16 17 16 16 16 17 17 19 19 18 18 18 18 18 18 17 12 14 16 11 11 16 17
15 16 14 16 17 19 19 19 18 18 17 16 15 15 15 15 15 15 15 16 15 16 16 15 16 16 16 16 16 15 15 15 15 15 15 15 14 13 14 14 14 14 13 14 15 14 14 14 14 14 15 16 16 15 16 16 16 15 15 16 16 16 17 17 16 16 15 14 13 17 18 19 18 18 17 17 17 16 14 15 15 14 13 18 16
17 15 15 16 17 16 18 19 18 18 18 18 17 16 16 16 15 15 15 15 15 15 15 16 16 16 16 17 16 15 15 15 15 15 15 15 15 15 14 15 14 14 14 14 14 14 14 14 15 16 15 15 15 15 16 16 16 16 16 16 16 16 17 16 16 14 12 10 11 12 10 12 14 16 17 16 16 16 14 17 16 16 17 17 18
16 15 15 16 17 15 17 18 19 18 18 18 17 18 16 17 16 15 15 15 15 16 15 14 17 16 15 16 16 16 15 15 15 15 15 15 14 14 14 14 14 14 15 14 14 15 14 14 14 15 14 15 15 15 15 16 16 16 16 16 16 16 16 16 14 13 11 7 10 10 11 12 11 16 16 16 15 15 16 17 15 15 15 16 18
14 14 15 15 15 16 17 18 19 19 18 19 17 16 16 16 16 16 17 16 16 16 16 16 15 16 17 16 16 16 16 15 15 15 15 15 14 15 15 15 14 14 15 16 16 14 14 14 15 15 15 15 15 15 15 15 16 16 16 17 17 16 15 15 14 12 9 10 11 10 10 11 11 10 16 17 17 16 16 17 16 17 15 16 16
15 13 14 15 13 16 17 17 19 19 19 19 18 17 17 16 16 17 16 17 16 16 16 16 15 16 16 16 16 17 16 16 16 15 15 14 14 15 15 14 14 15 15 15 15 14 14 15 15 14 14 14 14 14 15 15 15 15 16 16 16 16 15 15 14 10 6 8 9 9 10 11 10 8 15 16 16 16 17 17 16 16 16 16 16
14 11 13 14 13 16 16 17 19 20 20 18 19 18 18 18 18 17 16 16 17 16 17 16 15 15 16 16 15 16 16 16 16 15 15 14 13 13 13 14 13 13 14 15 14 14 15 15 14 14 14 14 14 15 15 15 15 15 15 16 16 16 15 13 12 11 8 10 10 9 9 10 11 9 14 16 16 17 16 16 15 16 16 17 15
14 14 13 13 13 19 16 16 18 20 20 19 19 18 20 19 18 17 16 16 16 16 16 15 16 16 16 17 15 16 17 16 15 16 16 15 14 14 14 14 14 14 15 16 15 15 15 15 15 15 15 14 14 15 15 15 15 15 15 15 15 16 15 14 10 7 9 10 11 9 11 10 10 10 14 16 17 16 16 13 13 15 16 15 15
13 14 13 13 13 16 17 16 17 20 20 20 19 19 19 19 17 17 17 17 16 16 16 15 16 16 16 16 16 16 16 17 17 16 16 15 15 15 15 14 14 14 15 15 16 14 14 14 14 15 15 14 14 15 15 14 14 14 14 15 15 15 14 13 11 9 9 11 12 13 12 11 10 10 12 14 15 16 15 14 13 13 12 15 16
12 13 13 13 16 16 16 17 18 19 20 20 20 20 19 18 18 18 17 16 16 16 16 16 16 16 16 16 16 17 16 15 15 15 16 15 15 15 14 14 14 14 14 14 14 15 14 14 14 14 15 15 14 14 14 14 14 14 14 15 15 14 13 10 8 8 9 9 9 11 12 11 10 9 13 14 15 15 13 15 14 14 15 15 16
11 13 12 11 15 15 15 16 16 19 20 20 20 20 19 18 18 17 17 17 17 16 16 16 16 15 16 16 16 16 15 15 15 15 16 15 15 15 15 14 12 13 14 15 14 14 15 15 14 14 14 15 14 14 14 13 13 14 14 15 14 13 11 10 8 8 9 10 10 9 11 11 11 11 14 15 16 16 15 15 15 15 15 15 15
10 9 11 9 11 13 14 14 15 18 20 21 19 19 19 19 19 18 17 18 17 16 16 16 16 15 17 17 16 16 16 15 15 15 15 16 15 15 15 15 14 14 14 15 15 15 14 13 14 14 14 14 14 14 13 14 13 13 14 14 14 13 11 9 8 9 8 9 9 8 10 10 11 14 13 14 14 15 15 15 16 16 15 15 14
11 9 8 11 11 13 14 14 15 16 18 18 19 19 19 18 18 18 18 18 16 18 17 17 17 17 16 16 16 16 16 15 15 15 15 15 14 15 15 15 14 13 13 15 14 14 14 14 14 15 15 14 14 14 14 14 14 14 15 14 12 10 8 9 9 9 8 10 10 11 10 10 10 14 14 14 14 15 14 15 15 15 15 14 15
9 11 9 10 11 12 15 14 14 15 16 16 17 18 19 19 18 18 18 18 18 17 17 16 16 16 17 16 15 16 16 16 15 15 15 15 15 15 14 15 14 13 13 14 14 14 14 14 14 14 14 14 14 14 14 14 14 15 15 13 12 11 7 7 7 8 8 8 9 10 9 9 13 13 14 14 15 14 15 14 14 14 15 15 14
7 8 8 9 9 10 12 11 14 14 13 14 15 16 17 18 18 18 17 17 18 17 17 17 17 17 17 16 15 16 16 15 15 14 14 15 15 14 14 14 15 15 14 13 14 13 13 13 13 14 14 14 14 13 13 14 15 15 14 14 13 11 10 6 6 7 7 7 7 9 9 9 13 14 13 14 14 14 14 14 14 14 14 15 14
8 8 9 8 10 8 11 11 12 15 12 14 14 14 15 17 17 18 17 17 17 16 16 17 16 17 18 17 15 16 17 16 15 15 14 14 14 13 14 13 13 14 14 13 14 14 13 13 13 13 14 14 14 13 13 14 15 15 14 14 12 11 9 6 7 7 8 8 7 8 8 7 11 13 14 14 14 13 13 14 14 14 14 14 14
10 10 9 9 8 8 8 8 12 14 11 12 13 13 15 14 15 16 17 16 15 15 14 15 15 14 16 17 16 16 16 15 13 13 13 12 12 13 13 14 14 14 14 13 14 14 13 13 13 13 13 14 14 13 13 14 15 14 14 13 12 10 9 7 7 7 8 8 8 8 8 10 11 11 13 13 13 13 13 14 13 14 14 14 14
13 13 11 9 10 9 8 9 11 13 13 12 11 11 15 15 14 13 14 15 14 12 12 14 13 14 14 15 16 14 14 14 11 12 11 11 11 11 11 14 14 14 14 13 14 14 13 13 13 13 13 13 13 13 13 14 14 14 13 12 11 10 8 7 7 6 7 7 7 8 8 11 11 12 12 13 12 12 13 14 13 14 13 14 13
12 13 13 10 10 10 8 5 8 10 13 13 13 12 11 14 12 12 13 13 12 10 12 13 12 13 13 13 13 14 12 12 13 11 11 10 10 10 10 12 13 13 13 14 14 14 13 12 12 12 13 13 13 13 13 15 14 13 12 10 9 7 6 6 7 7 7 7 7 7 9 10 11 12 12 12 12 12 12 12 11 13 13 13 13
10 13 13 12 10 9 9 7 6 8 10 11 11 11 9 13 12 11 11 13 12 10 11 13 13 10 11 11 13 14 13 11 12 10 10 9 8 8 9 10 13 13 13 13 13 13 13 13 13 12 13 13 14 14 14 14 14 12 11 9 8 6 6 6 6 6 7 6 7 7 7 10 10 11 11 11 11 13 13 12 12 13 13 14 13
11 11 12 13 12 8 9 10 6 8 6 7 6 5 7 12 14 12 9 10 11 11 11 10 9 8 11 10 10 10 11 10 11 12 9 10 8 8 8 8 10 13 13 14 14 15 14 14 13 13 13 13 13 8 9 12 12 11 9 8 6 5 5 6 6 6 7 6 7 7 9 10 10 10 10 11 11 11 11 12 12 12 12 13 13
6 9 10 12 13 13 9 10 10 7 10 8 7 6 9 9 12 13 9 10 10 10 10 10 9 10 9 8 10 10 10 10 9 9 7 10 9 10 9 8 9 9 9 14 17 18 16 13 12 12 12 9 5 5 5 5 6 8 7 6 5 5 5 6 6 6 6 6 6 9 8 9 10 10 10 10 10 11 11 11 12 12 12 13 12
9 11 10 9 12 12 14 10 11 10 9 7 7 8 7 5 8 8 9 9 9 8 9 8 8 10 9 8 8 8 9 9 13 16 10 8 9 11 11 12 12 12 13 16 18 17 18 13 12 11 7 3 4 5 5 5 4 4 4 5 5 5 5 5 5 5 5 6 6 10 8 9 10 10 9 9 10 10 10 10 11 11 12 12 12
7 7 5 8 11 13 12 9 10 11 11 8 7 7 8 6 5 6 7 6 6 7 7 7 8 9 10 7 8 8 8 9 8 7 8 7 6 6 6 6 6 7 11 9 8 8 8 6 5 4 4 4 4 4 4 5 4 4 4 5 5 5 5 4 4 4 4 5 6 9 9 9 9 8 9 9 9 10 10 10 11 11 12 12 12
2 6 6 8 13 14 12 11 10 12 12 9 9 8 9 10 6 7 8 7 8 7 6 7 8 8 9 8 8 9 8 8 9 8 8 7 6 5 5 6 6 6 6 7 6 6 6 5 4 4 4 3 4 4 4 4 4 4 4 4 4 4 4 4 4 4 4 4 6 9 9 9 9 9 9 9 8 9 9 10 11 11 11 11 11
7 4 6 7 7 8 11 12 13 11 13 10 8 9 9 9 8 7 8 7 8 8 7 7 7 8 8 9 9 8 8 8 8 8 8 7 6 5 5 6 6 5 5 6 6 6 5 4 4 4 4 5 5 5 5 5 4 5 5 4 4 4 4 3 3 3 2 4 5 10 8 8 8 8 9 8 8 8 9 10 11 11 10 11 10
7 7 6 8 6 10 12 11 12 12 12 10 9 9 8 10 10 10 7 8 8 8 7 7 7 9 10 8 9 8 8 7 7 8 8 6 5 5 5 5 6 5 4 5 6 5 4 4 4 5 5 5 5 5 5 5 5 5 5 5 4 4 3 3 3 2 2 2 4 7 8 8 8 8 8 8 8 8 9 10 10 9 9 10 10
7 8 7 7 9 7 6 11 10 7 7 9 11 8 8 9 10 9 8 11 7 6 7 7 7 8 8 9 9 9 8 8 7 7 7 6 6 5 5 5 5 5 5 5 5 5 5 5 5 4 4 5 5 5 5 4 4 4 5 5 5 4 4 3 3 2 1 1 2 5 9 9 8 8 8 9 8 8 9 9 10 9 9 9 10
8 7 9 9 9 8 10 10 11 14 13 11 5 5 9 10 12 11 10 10 8 8 9 7 7 7 7 8 9 9 8 8 7 6 7 7 6 5 6 6 5 5 5 5 4 5 5 4 4 4 4 5 5 5 5 5 5 4 4 5 5 4 4 4 3 2 2 1 1 3 7 8 9 9 9 9 9 9 9 9 9 9 8 9 9
9 9 8 8 9 11 13 12 12 11 12 11 11 11 8 5 9 9 9 9 8 8 6 7 7 7 8 8 8 8 8 8 8 8 7 7 6 6 6 5 5 4 4 5 4 4 4 4 4 4 4 4 5 4 4 5 5 5 4 4 4 4 4 3 3 2 2 2 2 2 3 6 9 9 10 10 10 10 10 10 9 8 8 9 9
7 7 7 7 10 12 13 14 12 11 13 13 11 12 11 12 11 10 9 9 10 8 7 6 7 6 9 8 7 7 8 8 9 8 7 8 7 6 6 6 5 5 5 5 5 4 4 4 4 4 4 4 4 4 4 4 5 4 5 5 3 4 3 3 3 2 2 2 1 1 2 2 6 8 9 10 11 11 10 10 9 8 8 9 9
6 6 7 7 10 12 13 13 13 13 15 14 12 12 10 11 10 11 10 11 9 10 7 6 7 7 7 9 8 8 7 8 7 8 8 7 7 6 6 6 6 5 5 6 6 5 4 4 4 4 4 4 4 4 3 4 5 5 4 4 4 4 3 3 2 2 2 1 1 1 1 1 2 4 8 10 12 12 11 10 9 9 9 9 9
7 6 7 8 8 8 9 9 11 13 15 13 12 11 11 10 9 9 10 10 9 9 9 7 7 7 6 7 7 7 7 7 8 7 7 7 7 6 7 6 5 6 5 6 6 5 5 5 5 5 4 4 4 4 4 4 4 4 4 3 3 3 3 3 2 2 1 1 1 1 1 1 1 2 2 7 11 12 11 10 10 10 10 10 9
8 9 9 9 10 10 8 9 9 10 13 14 14 12 12 9 10 9 9 10 7 8 7 7 6 7 7 7 8 7 7 8 8 8 7 7 7 6 6 5 6 6 6 6 6 5 6 6 6 6 5 4 3 2 3 4 5 5 4 3 3 3 3 3 2 2 1 1 1 1 1 1 1 2 2 3 5 11 11 10 10 10 11 11 10
9 10 11 9 10 11 11 12 13 10 10 13 14 13 12 10 9 10 10 10 9 8 8 8 6 6 6 7 6 6 7 8 8 8 8 7 7 7 6 6 7 6 6 6 6 6 6 5 5 5 6 4 4 2 2 3 4 4 3 3 3 3 3 3 2 1 1 1 1 1 1 1 2 2 2 3 3 5 9 9 10 10 11 11 10
9 10 11 11 11 11 11 13 15 15 10 8 10 12 11 11 9 11 12 10 10 8 9 8 6 7 6 7 7 6 7 7 8 8 8 7 6 6 6 7 7 7 6 6 6 6 6 5 5 4 5 5 5 4 3 3 3 3 3 3 2 2 3 2 2 2 1 1 1 1 1 1 2 1 2 3 3 2 4 8 9 10 11 10 10
10 11 11 12 11 11 11 13 15 13 13 11 8 9 9 10 9 8 8 10 10 8 8 9 7 6 7 8 8 7 6 6 7 7 6 6 6 6 6 7 7 7 7 7 6 6 6 6 6 4 3 4 5 5 4 2 2 2 3 3 3 2 2 2 2 1 1 1 2 1 1 1 1 2 2 3 3 3 2 2 4 5 9 10 10
8 10 10 11 11 11 10 13 15 13 11 11 10 9 9 6 7 9 9 9 8 7 7 7 8 7 6 9 10 8 6 5 5 6 6 6 6 5 6 7 6 6 7 7 6 7 7 6 6 6 4 4 4 4 4 3 3 2 2 3 3 2 2 2 2 2 1 1 1 1 1 1 1 1 2 2 3 2 3 3 4 3 4 8 9
7 8 10 11 12 13 12 11 13 13 11 11 11 10 8 9 10 9 8 7 7 9 7 7 7 8 8 8 8 8 8 7 5 4 5 6 6 6 6 6 5 6 6 7 7 7 8 8 7 7 6 4 3 4 4 4 3 3 2 2 2 3 3 3 3 2 2 2 2 2 2 2 1 2 2 2 2 2 3 3 3 3 3 4 6
7 9 10 12 13 14 14 14 13 13 13 12 10 12 12 8 7 12 10 9 10 9 9 7 7 6 10 8 9 7 7 9 6 5 5 6 6 5 5 6 5 6 6 7 7 8 7 7 6 5 7 6 4 2 3 3 4 3 3 3 4 4 4 4 4 4 4 3 2 2 2 2 2 2 2 1 1 2 2 3 3 3 3 3 3
8 8 11 12 13 15 16 14 12 13 13 14 14 11 12 12 14 12 9 10 11 11 9 8 8 7 7 6 7 9 8 8 9 7 6 6 6 5 5 5 6 6 5 6 7 7 7 6 5 5 3 5 4 4 3 4 2 3 3 3 4 4 4 5 5 5 5 4 3 2 2 2 2 2 2 1 1 1 2 2 3 3 3 3 3
9 8 10 12 13 14 16 14 13 14 12 12 12 13 11 8 10 11 12 9 5 6 9 8 8 8 8 8 6 7 8 6 4 6 8 5 6 7 7 6 5 6 6 6 6 7 7 7 7 5 4 2 2 3 5 4 1 2 0 1 3 4 4 4 5 6 6 5 4 4 3 3 3 2 2 1 1 1 0 1 2 2 3 3 3
8 7 9 12 11 13 16 16 14 13 15 13 10 10 13 12 9 10 8 7 9 8 8 8 8 8 6 5 5 7 7 5 4 5 4 5 6 7 6 6 7 6 6 6 6 6 6 7 6 5 5 5 3 3 4 3 2 3 2 3 1 2 3 4 3 5 7 7 6 5 4 4 4 3 3 3 2 1 1 0 1 2 2 2 3
9 8 9 11 10 14 17 17 16 16 14 13 12 12 13 12 12 10 9 12 9 8 9 8 7 7 7 5 4 6 7 6 5 3 3 3 3 4 6 5 5 7 6 6 6 6 6 6 6 6 6 4 5 2 3 3 4 2 2 1 3 4 1 3 3 3 5 5 7 7 5 5 5 4 4 3 2 2 2 2 2 2 2 2 2
9 9 9 11 12 13 17 17 15 15 15 12 11 12 12 16 14 14 11 10 12 11 11 13 12 12 10 7 6 5 6 6 5 5 5 5 4 3 3 4 5 5 6 6 5 6 6 6 6 5 5 3 4 4 3 3 3 2 2 1 3 2 2 1 2 0 4 3 4 6 6 7 6 5 4 4 4 4 3 3 3 3 3 2 2
9 8 9 11 14 14 14 15 15 14 13 11 12 9 11 12 17 17 16 15 15 11 11 8 9 7 9 9 8 5 6 7 6 5 5 5 5 5 5 4 3 4 4 5 5 6 5 5 5 5 6 4 4 4 5 4 2 4 3 2 2 1 2 2 2 3 2 3 4 5 6 7 6 6 6 5 5 5 4 4 4 4 3 2 2
8 8 9 11 14 14 14 15 13 14 11 12 12 11 12 12 12 10 10 11 11 12 12 11 9 10 10 9 8 7 6 6 6 6 5 5 6 5 5 5 4 2 3 3 4 4 3 2 3 3 3 4 5 4 5 6 6 4 4 4 3 2 3 4 5 4 4 3 2 3 3 5 6 6 7 6 6 6 6 5 5 4 4 3 2
8 9 10 12 12 14 15 14 13 14 12 15 13 15 13 14 13 12 10 4 6 9 10 9 11 11 12 10 9 9 7 7 6 6 5 5 4 4 3 4 4 4 3 2 2 2 4 4 4 4 5 5 5 4 4 5 5 3 4 2 3 4 3 3 3 3 4 4 4 2 1 3 4 6 6 6 6 5 6 5 5 5 4 4 3
8 9 10 11 11 12 13 14 14 12 14 15 13 14 14 13 13 12 12 11 6 8 10 13 13 11 11 12 10 9 8 6 6 6 7 7 7 6 5 5 5 5 4 4 4 3 4 4 4 5 5 6 3 3 4 2 2 3 3 3 3 3 2 3 3 4 4 4 5 3 2 3 3 3 3 4 5 5 5 5 5 5 5 4 3
7 10 11 10 12 12 13 13 13 12 15 16 16 12 10 10 10 11 12 14 12 12 13 13 12 12 13 12 10 10 9 8 7 6 6 7 7 7 7 6 5 4 4 4 5 4 4 4 4 4 5 6 3 3 2 2 2 3 3 3 4 4 4 4 4 4 4 3 4 5 4 3 3 3 3 2 3 4 4 4 5 5 5 5 4
Wind_Direction
173 162 162 169 164 159 158 162 153 154 154 155 151 149 150 145 145 141 143 142 141 145 147 145 143 146 141 125 139 141 133 132 129 129 117 117 115 112 110 109 109 104 100 105 96 97 97 104 91 89 88 85 83 87 89 83 79 83 85 76 74 76 77 73 71 67 65 69 76 75 72 72 69 69 71 67 64 62 51 40 45 59 56 54 48
165 166 165 167 167 156 164 160 160 157 159 157 155 153 153 148 148 148 146 143 147 146 148 145 143 145 136 140 146 135 135 131 130 128 122 121 117 115 116 110 108 111 115 113 109 104 101 100 99 94 89 93 92 94 91 90 90 88 87 86 83 83 83 78 65 62 66 70 68 74 73 71 68 66 66 68 64 62 54 50 46 51 57 58 57
156 162 165 167 164 165 165 158 162 161 161 159 155 153 148 149 153 153 147 148 151 147 146 143 144 145 142 142 140 140 136 131 133 130 127 125 123 125 121 118 118 112 113 116 117 113 111 105 98 95 97 96 97 89 93 92 91 89 91 88 85 85 80 71 65 61 59 60 70 80 77 71 68 68 66 65 69 64 58 53 54 42 55 58 59
158 165 165 163 169 168 161 160 164 163 163 157 155 152 153 151 155 156 150 152 152 150 149 149 143 145 144 142 140 138 135 136 135 131 129 130 130 128 127 123 119 123 127 120 116 108 104 102 101 99 96 93 93 97 93 92 91 91 90 90 87 84 77 70 64 62 58 46 74 76 71 69 65 63 64 63 65 68 68 57 51 51 50 52 51
159 164 167 165 169 162 157 164 165 166 167 161 157 153 153 152 159 157 155 155 153 148 149 153 147 146 146 144 142 140 139 137 134 132 133 128 129 129 128 125 126 128 121 120 115 113 108 107 101 98 100 97 98 101 99 96 91 91 93 91 89 82 76 70 66 62 55 35 84 77 72 71 70 62 60 58 58 64 67 62 54 54 49 51 50
163 163 166 166 167 162 161 166 166 165 169 164 162 161 158 159 159 158 159 155 153 152 149 154 149 146 148 145 143 139 140 138 138 135 131 128 135 131 124 129 128 121 118 120 113 112 108 107 102 101 102 104 103 97 94 93 94 92 94 93 92 85 76 69 65 55 48 76 74 72 73 69 66 63 55 56 61 56 61 60 52 50 46 47 50
166 168 170 167 168 166 164 165 166 166 166 165 161 161 159 160 161 160 159 155 157 155 154 153 151 149 146 144 147 143 143 140 136 135 132 137 134 129 132 131 125 123 120 115 113 117 109 102 103 106 100 97 100 102 98 93 93 96 94 93 91 83 74 67 60 44 29 74 69 72 68 64 63 65 55 49 54 59 57 59 55 52 50 46 43
171 172 173 172 173 162 164 163 167 166 166 163 159 161 160 161 162 158 160 159 157 155 154 155 151 151 147 145 149 144 142 141 138 138 135 133 133 132 126 124 122 127 121 120 122 119 113 110 106 101 100 102 106 104 102 104 100 97 98 95 88 81 77 71 62 57 61 71 69 66 72 71 65 64 55 56 51 46 49 57 54 52 48 46 42
174 174 175 174 173 159 160 165 168 165 165 165 163 164 165 163 163 157 163 163 157 155 153 154 151 151 150 146 150 144 140 141 140 140 136 135 132 134 130 130 136 134 131 128 126 116 109 114 112 106 102 100 105 106 102 99 100 97 100 99 86 81 76 67 67 89 75 73 74 73 69 70 66 63 61 60 58 58 52 49 56 53 51 48 46
174 176 177 176 169 158 161 164 171 167 164 166 164 165 168 166 163 163 163 164 159 156 155 155 153 151 153 151 146 145 141 144 141 141 137 138 138 136 135 140 137 132 129 129 118 115 118 114 112 110 104 103 104 105 106 104 99 102 100 93 84 80 74 75 74 61 77 78 75 70 57 51 66 61 63 65 65 61 63 59 53 52 52 48 46
169 179 181 177 166 160 161 166 172 166 167 166 164 168 167 167 164 163 165 163 160 160 157 156 153 154 156 151 146 145 144 146 141 142 140 140 139 136 140 135 134 132 118 114 114 116 116 112 110 109 105 104 105 105 105 105 104 103 102 89 82 76 69 74 76 72 69 65 65 72 81 68 63 59 50 60 65 66 62 62 58 53 51 50 49
159 174 179 178 153 163 163 167 171 167 167 166 166 169 166 166 163 164 165 162 163 161 160 157 157 156 152 150 146 150 147 143 138 141 140 143 136 139 137 135 134 131 124 123 124 117 112 114 115 110 109 108 104 103 104 105 104 103 96 86 80 72 60 65 74 75 73 72 63 60 63 65 63 57 52 51 53 57 56 57 55 55 52 50 49
161 164 172 164 153 165 167 166 169 169 169 166 168 169 166 164 166 167 163 164 161 158 164 156 159 156 152 151 152 148 145 143 142 140 145 143 143 143 140 139 139 135 130 125 123 119 119 121 115 112 109 105 105 104 105 106 107 103 91 84 78 70 57 54 80 76 74 66 66 68 74 67 63 56 54 56 55 53 53 51 49 48 52 50 48
161 167 167 160 160 164 167 169 167 170 172 168 166 166 169 163 166 165 163 168 160 157 167 158 161 159 152 151 152 146 144 145 144 144 145 141 144 143 142 140 137 134 136 129 126 121 121 118 116 115 110 108 107 106 106 107 107 99 87 80 72 63 69 77 80 81 73 72 62 61 64 66 64 58 55 57 56 55 53 51 48 46 47 50 45
164 165 165 161 162 168 167 171 167 173 174 168 167 168 164 165 166 165 167 165 164 161 162 157 161 161 153 148 149 149 144 146 146 149 145 144 148 145 142 140 137 137 136 129 129 122 123 121 116 116 113 109 106 106 107 107 104 91 82 75 66 50 36 89 82 84 80 72 69 65 57 62 67 63 59 59 58 57 56 54 51 46 44 47 47
182 172 163 164 161 168 171 170 167 173 175 166 165 175 167 165 165 165 170 165 165 164 161 160 163 158 153 148 147 149 146 147 150 146 144 147 146 143 142 144 145 143 138 134 129 125 125 122 118 116 115 113 109 108 108 104 95 88 80 74 64 56 33 74 86 81 74 68 72 74 64 53 58 62 60 57 56 56 56 53 50 48 45 42 42
177 178 174 165 170 168 175 173 170 172 174 164 168 174 162 166 166 166 169 166 166 162 165 163 161 160 153 150 152 149 144 150 149 147 146 148 141 144 145 144 139 138 135 137 129 123 125 125 124 121 116 114 113 110 108 105 92 85 80 73 65 57 37 59 85 78 76 70 68 70 65 51 40 60 62 60 55 54 54 54 51 48 46 45 38
181 179 180 172 170 172 175 172 171 173 171 164 167 164 159 167 166 168 166 164 163 160 164 156 162 158 151 154 152 149 148 147 147 137 134 141 141 145 146 145 142 141 140 137 130 128 129 127 124 121 120 114 115 111 109 102 90 85 81 76 68 60 46 55 82 76 71 65 62 64 66 64 50 49 60 61 57 54 52 50 50 48 44 45 43
184 187 183 176 178 174 177 180 178 174 171 168 168 160 157 165 165 166 164 156 162 161 153 145 157 150 150 149 150 144 135 139 116 118 124 132 141 142 145 146 144 142 140 138 133 126 130 127 126 124 120 118 114 113 110 96 91 86 80 77 71 65 56 76 77 76 73 72 67 58 56 61 57 49 56 59 58 54 52 50 40 54 46 46 45
189 189 189 186 178 179 183 177 169 174 178 173 171 161 151 152 164 159 158 153 153 145 141 146 152 145 143 142 133 134 126 124 113 120 119 125 140 145 142 146 145 143 141 140 132 126 128 126 125 125 123 119 117 113 106 94 90 86 81 73 68 69 82 81 76 68 72 68 73 62 32 56 57 56 46 47 53 53 55 57 42 43 50 46 45
191 194 191 188 181 179 177 174 165 156 166 169 168 162 153 141 152 156 145 147 141 133 134 135 141 137 136 127 133 144 145 130 127 134 118 122 100 104 126 137 146 146 139 129 128 131 124 126 126 123 121 119 116 110 95 90 88 85 78 70 74 78 71 73 70 63 56 47 72 73 61 56 55 55 59 52 43 49 51 51 49 40 35 44 44
194 195 196 190 184 181 177 175 164 156 137 132 146 138 153 153 160 155 144 145 140 127 134 133 119 113 108 125 145 150 150 152 140 128 116 111 107 100 111 132 140 144 139 124 125 123 121 119 117 117 114 114 118 112 92 83 82 82 73 72 82 83 71 70 67 60 49 48 52 52 59 57 57 54 53 54 53 48 46 49 49 48 45 40 40
205 198 197 194 192 184 176 176 169 147 148 145 145 144 157 163 163 161 145 144 139 133 130 125 129 130 128 127 147 145 145 144 143 113 108 89 80 64 60 84 100 111 116 114 115 111 112 118 113 107 101 98 95 100 105 109 99 88 84 79 82 76 74 69 68 62 53 38 63 23 36 57 55 55 51 48 50 51 49 46 48 46 47 42 40
211 201 194 191 191 189 183 170 167 158 155 157 153 152 157 132 157 150 149 144 137 128 126 121 126 129 128 132 132 118 115 106 97 106 105 109 91 83 81 78 68 58 75 98 101 100 102 102 102 104 103 104 100 104 110 115 118 111 96 92 88 78 74 71 70 66 57 44 45 15 27 40 53 47 54 49 42 43 47 46 48 45 47 43 37
212 223 217 184 190 190 180 172 166 166 160 160 151 155 150 125 135 131 129 129 120 125 125 121 125 127 125 126 122 113 114 122 121 115 124 119 122 124 115 99 91 92 92 97 101 102 103 114 109 102 99 98 101 103 114 116 115 112 100 95 96 89 84 77 75 74 60 57 40 14 29 34 44 47 48 49 46 41 34 44 46 45 44 43 40
161 234 218 187 195 186 178 173 166 172 168 162 153 150 148 145 138 138 135 133 132 124 123 129 131 127 126 125 122 119 120 125 129 125 125 130 131 120 106 104 103 106 100 106 99 100 110 123 113 105 100 94 94 100 100 110 114 111 104 95 98 97 90 85 83 81 73 64 51 26 33 36 36 37 37 44 46 40 38 31 44 45 44 42 39
212 200 195 213 202 196 183 168 173 171 168 158 145 150 153 150 140 137 135 140 139 139 137 136 135 124 124 134 134 129 127 130 127 129 125 131 128 123 112 116 117 111 107 110 104 111 128 125 118 107 104 101 96 94 92 92 98 104 103 98 95 97 97 92 90 90 86 84 56 24 35 36 36 35 33 37 38 37 35 34 33 40 39 42 39
243 211 195 196 194 205 198 184 177 168 162 155 148 157 153 149 153 146 140 144 140 142 138 135 130 134 140 140 134 133 131 134 136 134 127 128 123 114 112 114 113 106 106 110 118 122 127 125 121 116 115 110 107 103 102 102 103 104 105 102 100 97 94 95 98 97 101 97 90 41 30 37 35 33 36 33 29 32 34 30 33 36 33 38 39
237 227 204 196 193 181 176 181 176 154 158 158 157 153 152 148 150 151 145 151 138 133 133 132 136 138 141 140 141 139 140 141 138 133 133 122 124 127 125 119 120 119 123 122 130 139 136 137 136 133 123 120 117 109 107 108 112 108 108 107 103 98 100 105 107 103 100 103 81 50 26 28 30 32 35 30 31 34 33 28 25 28 29 30 34
237 226 217 214 197 176 185 188 170 182 167 160 136 150 156 152 157 158 153 152 137 135 139 144 141 141 141 143 142 146 148 142 133 136 137 133 132 132 129 130 129 130 132 133 143 146 143 138 135 130 127 125 119 116 120 112 106 107 107 108 108 109 111 113 114 117 114 90 87 89 38 26 24 27 30 32 35 35 34 31 26 25 26 29 33
246 231 213 203 199 191 194 184 183 173 168 171 165 155 158 131 143 141 145 148 130 128 140 142 143 150 143 138 141 143 140 138 139 143 142 138 139 141 141 131 129 129 127 126 134 136 138 140 143 140 138 128 119 122 117 111 109 105 106 107 108 113 114 116 116 116 112 103 90 83 78 40 28 27 25 28 31 34 33 29 26 25 23 28 29
251 244 234 218 197 196 196 190 177 175 172 172 158 160 164 156 148 145 146 146 148 138 136 139 147 143 137 139 142 138 137 137 142 145 144 142 149 148 138 143 138 135 137 136 135 139 139 126 122 123 115 113 115 116 117 120 115 108 106 106 111 116 119 116 120 111 96 94 100 105 89 73 56 32 30 28 30 32 31 27 25 24 25 26 28
246 249 243 237 222 202 198 189 183 172 173 168 164 172 153 155 152 155 156 152 157 149 137 144 138 137 139 141 142 140 138 139 142 143 142 142 145 143 139 141 144 143 134 129 126 130 129 130 120 125 120 119 120 118 122 116 112 113 112 109 111 111 115 122 118 126 122 121 101 99 88 74 64 68 41 33 32 29 26 23 22 23 24 26 21
265 244 230 231 229 210 196 192 184 174 176 168 163 164 161 156 153 156 149 147 154 152 153 135 132 135 134 131 132 137 137 136 140 139 141 139 145 146 144 141 140 137 133 140 145 150 149 146 145 142 131 132 132 141 140 127 120 118 113 116 115 117 121 118 111 113 143 122 118 83 85 61 45 40 40 50 36 28 20 18 21 23 24 24 21
259 262 249 234 222 215 193 181 175 188 174 169 166 166 163 158 152 147 148 144 143 146 143 135 127 136 136 138 142 135 132 139 140 142 142 144 150 149 145 144 144 148 148 157 156 156 155 158 161 151 138 124 122 139 138 131 131 127 129 136 124 124 118 113 122 131 138 121 115 86 51 48 36 31 16 35 55 33 17 14 20 23 23 24 17
258 256 258 246 231 212 195 185 172 182 191 176 168 165 163 160 154 150 147 146 141 142 143 143 122 122 123 130 131 127 131 139 140 144 146 151 154 152 149 142 148 155 155 152 159 163 162 163 162 154 139 128 134 151 157 137 134 132 131 126 132 142 122 121 123 133 134 172 112 120 86 59 28 40 6 39 33 45 18 14 21 23 23 20 16
264 256 250 247 233 218 194 183 177 174 170 176 168 159 153 151 151 152 147 145 144 144 145 140 130 129 132 131 135 131 135 140 147 149 149 150 150 146 144 150 159 158 154 158 168 168 162 161 158 163 154 144 146 154 162 155 141 134 130 137 146 158 139 127 135 125 189 155 150 154 121 86 78 330 40 35 29 24 33 17 22 25 22 17 13
262 253 246 242 233 215 193 184 176 164 163 161 156 151 143 139 138 139 140 140 139 139 142 140 140 129 133 134 135 131 127 131 145 150 144 145 145 144 148 158 160 157 157 167 170 168 167 169 162 162 160 136 143 156 167 138 129 156 161 163 164 178 139 144 130 177 193 171 187 160 111 111 78 44 49 45 30 15 353 24 10 28 26 16 11
254 251 239 234 232 215 192 185 171 158 152 144 135 127 121 96 112 131 135 133 124 121 133 139 139 138 135 136 137 134 130 131 136 136 136 141 141 143 150 158 161 159 160 167 163 167 171 175 166 156 163 160 154 153 150 142 156 189 190 171 176 179 172 155 174 184 181 205 187 184 196 150 102 72 60 52 42 11 8 359 15 14 28 16 10
251 247 234 227 223 215 191 178 163 149 137 134 133 132 132 137 131 126 124 131 131 134 139 137 142 140 137 139 137 136 138 138 137 137 134 140 141 155 153 157 159 154 160 165 168 172 177 173 170 164 156 143 157 155 156 162 167 191 198 190 204 192 203 189 186 194 210 205 210 208 190 162 173 113 87 70 49 13 10 5 16 6 1 6 2
246 236 230 222 217 208 191 167 157 149 142 137 140 143 141 135 135 152 145 149 148 142 138 140 137 140 139 135 136 135 138 136 137 142 145 141 140 140 145 158 157 157 166 171 170 171 175 176 164 164 161 159 154 153 169 184 173 188 198 212 208 202 198 202 204 204 213 213 215 214 193 206 167 157 120 86 52 29 1 16 10 3 357 352 346
247 223 224 219 211 205 193 167 156 161 157 153 152 159 165 164 159 162 147 151 149 148 145 141 137 130 133 133 135 136 144 153 152 147 147 148 141 144 155 163 164 165 163 159 163 162 167 166 161 155 172 175 161 169 168 183 205 217 190 187 207 194 196 204 211 217 215 218 218 209 214 212 202 167 156 157 141 355 16 15 9 353 353 350 348
263 234 223 215 205 199 193 171 168 168 167 160 152 157 161 154 151 147 149 136 120 122 131 134 134 137 142 142 123 129 138 146 148 139 149 150 149 153 166 166 176 163 154 156 159 162 173 170 173 169 157 174 136 152 177 228 227 206 326 297 198 205 177 218 212 220 207 214 207 217 215 218 204 206 190 192 207 206 36 4 356 343 345 352 345
257 232 214 213 202 195 192 176 171 169 176 174 158 137 138 123 92 122 113 113 135 117 114 120 123 112 114 116 123 130 132 129 136 148 136 147 160 159 152 164 167 170 168 162 164 160 164 174 174 168 164 165 182 170 196 199 250 191 190 220 359 281 213 166 214 198 200 203 211 218 206 215 202 200 212 220 216 225 221 306 311 313 328 348 340
258 235 209 202 199 193 190 177 174 176 178 172 158 131 116 102 109 97 102 102 93 109 116 122 129 126 119 123 127 132 132 128 129 119 133 133 132 145 153 158 157 169 168 168 170 172 166 169 173 165 184 187 170 139 190 197 237 308 335 222 207 216 10 59 292 170 181 200 215 218 213 209 210 212 217 224 210 228 232 236 262 273 295 316 339
257 236 212 199 194 192 191 180 176 174 173 155 129 137 140 139 137 136 140 139 139 150 160 160 163 158 154 135 111 123 126 126 130 134 146 139 144 127 130 144 153 172 172 164 160 156 168 179 185 176 189 222 171 154 173 209 239 261 280 322 352 357 3 26 280 142 171 215 187 207 212 212 217 216 221 225 212 222 223 242 249 263 269 301 323
256 237 210 201 194 189 184 178 177 171 167 137 140 137 144 153 156 159 160 162 159 173 165 151 136 130 133 141 140 130 139 137 137 141 147 148 145 153 151 148 147 173 160 154 163 175 173 177 165 177 193 177 167 178 180 179 176 242 230 277 310 343 333 306 303 321 238 155 205 203 212 211 214 219 225 227 224 222 222 227 242 253 263 262 298
259 231 209 201 190 181 178 174 170 165 149 140 149 155 155 161 163 151 148 153 167 161 151 143 135 129 133 139 142 143 138 139 139 143 150 149 159 151 153 151 152 142 133 142 157 161 153 154 168 188 157 175 198 205 185 167 188 179 193 205 211 228 254 267 269 295 322 306 172 194 221 203 207 221 224 226 224 224 234 225 233 247 255 243 266
252 229 204 196 182 173 167 164 162 162 153 150 155 166 166 172 166 156 160 127 103 130 134 130 136 141 136 141 147 147 142 148 149 145 144 148 154 158 148 153 157 150 149 132 123 149 176 172 173 189 195 193 203 226 216 192 206 160 155 175 202 227 223 235 258 234 244 263 266 247 178 174 223 228 217 218 225 227 229 235 231 238 253 257 247
249 231 200 185 164 162 156 155 155 156 160 158 161 164 170 166 168 164 160 155 127 120 135 149 150 149 143 149 153 155 150 148 153 150 154 162 164 166 168 168 165 160 164 160 154 169 193 190 181 185 194 194 204 210 230 179 175 129 166 140 166 178 216 224 213 211 236 256 284 308 312 277 260 152 193 206 215 221 224 230 230 230 242 249 247
242 211 169 162 153 147 149 152 152 150 159 166 173 167 155 161 163 157 151 146 143 144 150 151 149 150 153 156 158 160 154 155 157 157 162 164 167 171 175 175 171 158 160 161 173 179 192 197 188 191 192 192 180 183 183 155 164 168 172 178 190 185 201 211 197 190 218 227 228 251 241 221 273 281 159 171 192 216 220 220 225 229 234 239 241